Time,TemperatureF,DewpointF,PressureIn,WindDirection,WindDirectionDegrees,WindSpeedMPH,WindSpeedGustMPH,Humidity,HourlyPrecipIn,Conditions,Clouds,dailyrainin,SoftwareType,DateUTC
2013-04-18 00:00:00,58.2,54.0,30.08,East,92,0.0,5.0,86,0.00,,,0.00,VWS V14.01,2013-04-18 04:00:00,
2013-04-18 00:01:00,58.3,54.5,30.08,SSE,152,0.0,5.0,87,0.00,,OVC026,0.01,VWS V14.01,2013-04-18 04:01:00,
2013-04-18 00:06:00,58.2,54.4,30.08,East,92,0.0,5.0,87,0.00,,OVC026,0.01,VWS V14.01,2013-04-18 04:06:00,
2013-04-18 00:10:00,58.2,54.0,30.08,East,92,0.0,2.0,86,0.00,,,0.00,VWS V14.01,2013-04-18 04:10:00,
2013-04-18 00:11:00,58.2,54.0,30.08,East,92,1.0,2.0,86,0.00,,OVC026,0.00,VWS V14.01,2013-04-18 04:11:00,
2013-04-18 00:16:00,58.2,54.0,30.08,East,92,0.0,2.0,86,0.00,,OVC026,0.00,VWS V14.01,2013-04-18 04:16:00,
2013-04-18 00:20:00,58.1,53.9,30.08,ESE,110,0.0,3.0,86,0.00,,,0.00,VWS V14.01,2013-04-18 04:20:00,
2013-04-18 00:21:00,58.1,53.9,30.08,ESE,111,0.0,3.0,86,0.00,,OVC026,0.00,VWS V14.01,2013-04-18 04:21:00,
2013-04-18 00:26:00,58.1,53.9,30.08,ESE,110,0.0,3.0,86,0.00,,OVC026,0.00,VWS V14.01,2013-04-18 04:26:00,
2013-04-18 00:30:00,58.1,54.3,30.09,East,99,1.0,3.0,87,0.00,,,0.00,VWS V14.01,2013-04-18 04:30:00,
2013-04-18 00:32:00,58.0,53.8,30.08,ESE,111,0.0,0.0,86,0.00,,OVC026,0.00,VWS V14.01,2013-04-18 04:32:00,
2013-04-18 00:37:00,58.0,54.2,30.09,ESE,104,1.0,3.0,87,0.00,,OVC026,0.00,VWS V14.01,2013-04-18 04:37:00,
2013-04-18 00:40:00,58.2,54.3,30.09,SE,137,0.0,4.0,87,0.00,,,0.00,VWS V14.01,2013-04-18 04:40:00,
2013-04-18 00:42:00,58.2,54.4,30.09,East,94,0.0,3.0,87,0.00,,OVC026,0.00,VWS V14.01,2013-04-18 04:42:00,
2013-04-18 00:47:00,58.2,54.4,30.09,SE,137,1.0,4.0,87,0.00,,OVC026,0.00,VWS V14.01,2013-04-18 04:47:00,
2013-04-18 00:50:00,58.2,54.3,30.09,SE,135,2.0,10.0,87,0.00,,,0.00,VWS V14.01,2013-04-18 04:50:00,
2013-04-18 00:52:00,58.1,54.3,30.09,East,101,1.0,3.0,87,0.00,,OVC026,0.00,VWS V14.01,2013-04-18 04:52:00,
2013-04-18 00:57:00,58.2,54.4,30.09,SSE,152,5.0,10.0,87,0.00,,OVC026,0.00,VWS V14.01,2013-04-18 04:57:00,
2013-04-18 01:00:00,58.1,54.3,30.09,SSE,163,9.0,10.0,87,0.00,,,0.00,VWS V14.01,2013-04-18 05:00:00,
2013-04-18 01:02:00,58.1,54.3,30.09,SE,133,3.0,7.0,87,0.00,,OVC060,0.00,VWS V14.01,2013-04-18 05:02:00,
2013-04-18 01:07:00,58.1,54.3,30.09,SE,130,5.0,7.0,87,0.00,,OVC060,0.00,VWS V14.01,2013-04-18 05:07:00,
2013-04-18 01:10:00,58.1,54.6,30.09,ESE,118,0.0,9.0,88,0.00,,,0.00,VWS V14.01,2013-04-18 05:10:00,
2013-04-18 01:12:00,58.2,54.4,30.09,ESE,115,2.0,9.0,87,0.00,,OVC060,0.00,VWS V14.01,2013-04-18 05:12:00,
2013-04-18 01:17:00,58.1,54.3,30.09,ESE,123,1.0,9.0,87,0.00,,OVC060,0.00,VWS V14.01,2013-04-18 05:17:00,
2013-04-18 01:20:00,58.0,54.5,30.09,SSE,165,2.0,7.0,88,0.00,,,0.00,VWS V14.01,2013-04-18 05:20:00,
2013-04-18 01:22:00,58.1,54.6,30.09,SE,131,2.0,4.0,88,0.00,,OVC060,0.00,VWS V14.01,2013-04-18 05:22:00,
2013-04-18 01:27:00,58.0,54.5,30.09,SSE,157,3.0,7.0,88,0.00,,OVC060,0.00,VWS V14.01,2013-04-18 05:27:00,
2013-04-18 01:30:00,58.0,54.5,30.08,SSE,162,1.0,8.0,88,0.00,,,0.00,VWS V14.01,2013-04-18 05:30:00,
2013-04-18 01:32:00,58.0,54.5,30.09,SSE,155,1.0,8.0,88,0.00,,OVC060,0.00,VWS V14.01,2013-04-18 05:32:00,
2013-04-18 01:37:00,58.0,54.5,30.08,SSE,148,3.0,8.0,88,0.00,,OVC060,0.00,VWS V14.01,2013-04-18 05:37:00,
2013-04-18 01:40:00,57.8,54.3,30.08,SSE,159,3.0,5.0,88,0.00,,,0.00,VWS V14.01,2013-04-18 05:40:00,
2013-04-18 01:42:00,57.9,54.4,30.08,SE,126,1.0,5.0,88,0.00,,OVC060,0.00,VWS V14.01,2013-04-18 05:42:00,
2013-04-18 01:47:00,57.9,54.4,30.08,SE,143,3.0,5.0,88,0.00,,OVC060,0.00,VWS V14.01,2013-04-18 05:47:00,
2013-04-18 01:50:00,57.7,54.2,30.08,SE,132,3.0,4.0,88,0.00,,,0.00,VWS V14.01,2013-04-18 05:50:00,
2013-04-18 01:52:00,57.8,54.3,30.08,SE,145,0.0,3.0,88,0.00,,OVC060,0.00,VWS V14.01,2013-04-18 05:52:00,
2013-04-18 01:57:00,57.7,54.2,30.08,SSE,153,2.0,4.0,88,0.00,,OVC060,0.00,VWS V14.01,2013-04-18 05:57:00,
2013-04-18 02:00:00,57.5,54.3,30.07,SE,135,2.0,4.0,89,0.00,,,0.00,VWS V14.01,2013-04-18 06:00:00,
2013-04-18 02:02:00,57.6,54.4,30.08,SE,143,0.0,3.0,89,0.00,,OVC021,0.00,VWS V14.01,2013-04-18 06:02:00,
2013-04-18 02:07:00,57.5,54.3,30.07,SE,126,0.0,4.0,89,0.00,,OVC021,0.00,VWS V14.01,2013-04-18 06:07:00,
2013-04-18 02:10:00,57.5,54.3,30.07,SE,136,3.0,5.0,89,0.00,,,0.00,VWS V14.01,2013-04-18 06:10:00,
2013-04-18 02:12:00,57.5,54.3,30.07,SE,143,0.0,5.0,89,0.00,,OVC021,0.00,VWS V14.01,2013-04-18 06:12:00,
2013-04-18 02:17:00,57.5,54.3,30.07,SSE,160,2.0,5.0,89,0.00,,OVC021,0.00,VWS V14.01,2013-04-18 06:17:00,
2013-04-18 02:20:00,57.4,54.2,30.07,SE,138,0.0,4.0,89,0.00,,,0.00,VWS V14.01,2013-04-18 06:20:00,
2013-04-18 02:22:00,57.5,54.3,30.07,SSE,152,0.0,4.0,89,0.00,,OVC021,0.00,VWS V14.01,2013-04-18 06:22:00,
2013-04-18 02:27:00,57.4,54.2,30.07,SE,138,0.0,4.0,89,0.00,,OVC021,0.00,VWS V14.01,2013-04-18 06:27:00,
2013-04-18 02:30:00,57.4,54.2,30.06,SE,137,4.0,7.0,89,0.00,,,0.00,VWS V14.01,2013-04-18 06:30:00,
2013-04-18 02:32:00,57.3,54.1,30.07,SE,127,1.0,4.0,89,0.00,,OVC021,0.00,VWS V14.01,2013-04-18 06:32:00,
2013-04-18 02:37:00,57.3,54.1,30.06,SSE,161,3.0,7.0,89,0.00,,OVC021,0.00,VWS V14.01,2013-04-18 06:37:00,
2013-04-18 02:40:00,57.3,54.1,30.06,SSE,153,3.0,7.0,89,0.00,,,0.00,VWS V14.01,2013-04-18 06:40:00,
2013-04-18 02:42:00,57.4,54.2,30.06,SSE,166,2.0,6.0,89,0.00,,OVC021,0.00,VWS V14.01,2013-04-18 06:42:00,
2013-04-18 02:47:00,57.4,54.2,30.06,SSE,153,4.0,7.0,89,0.00,,OVC021,0.00,VWS V14.01,2013-04-18 06:47:00,
2013-04-18 02:50:00,57.3,54.1,30.05,SE,126,3.0,5.0,89,0.00,,,0.00,VWS V14.01,2013-04-18 06:50:00,
2013-04-18 02:52:00,57.4,54.2,30.05,SE,133,1.0,4.0,89,0.00,,OVC021,0.00,VWS V14.01,2013-04-18 06:52:00,
2013-04-18 02:57:00,57.3,54.1,30.05,SE,136,2.0,5.0,89,0.00,,OVC021,0.00,VWS V14.01,2013-04-18 06:57:00,
2013-04-18 03:00:00,57.1,54.2,30.05,SSW,207,2.0,5.0,90,0.00,,,0.00,VWS V14.01,2013-04-18 07:00:00,
2013-04-18 03:02:00,57.2,54.3,30.05,SE,145,0.0,5.0,90,0.00,,OVC013,0.00,VWS V14.01,2013-04-18 07:02:00,
2013-04-18 03:07:00,57.1,54.2,30.05,SSW,208,1.0,5.0,90,0.00,,OVC013,0.00,VWS V14.01,2013-04-18 07:07:00,
2013-04-18 03:10:00,57.2,54.3,30.05,South,188,2.0,11.0,90,0.00,,,0.00,VWS V14.01,2013-04-18 07:10:00,
2013-04-18 03:12:00,57.2,54.3,30.05,ESE,111,5.0,11.0,90,0.00,,OVC013,0.00,VWS V14.01,2013-04-18 07:12:00,
2013-04-18 03:17:00,57.3,54.4,30.05,South,190,2.0,11.0,90,0.00,,OVC013,0.00,VWS V14.01,2013-04-18 07:17:00,
2013-04-18 03:20:00,57.1,54.2,30.03,SE,138,3.0,9.0,90,0.00,,,0.00,VWS V14.01,2013-04-18 07:20:00,
2013-04-18 03:22:00,57.2,54.3,30.03,SE,145,1.0,7.0,90,0.00,,OVC013,0.00,VWS V14.01,2013-04-18 07:22:00,
2013-04-18 03:27:00,57.1,54.2,30.03,SE,145,1.0,9.0,90,0.00,,OVC013,0.00,VWS V14.01,2013-04-18 07:27:00,
2013-04-18 03:30:00,57.1,54.2,30.02,SE,136,3.0,9.0,90,0.00,,,0.00,VWS V14.01,2013-04-18 07:30:00,
2013-04-18 03:32:00,57.1,54.2,30.03,ESE,106,4.0,7.0,90,0.00,,OVC013,0.00,VWS V14.01,2013-04-18 07:32:00,
2013-04-18 03:37:00,57.1,54.5,30.02,SE,139,3.0,9.0,91,0.00,,OVC013,0.00,VWS V14.01,2013-04-18 07:37:00,
2013-04-18 03:40:00,57.1,54.5,30.02,SSE,153,0.0,8.0,91,0.00,,,0.00,VWS V14.01,2013-04-18 07:40:00,
2013-04-18 03:42:00,57.1,54.5,30.02,SE,142,0.0,7.0,91,0.00,,OVC013,0.00,VWS V14.01,2013-04-18 07:42:00,
2013-04-18 03:47:00,57.1,54.5,30.02,SSE,153,0.0,8.0,91,0.00,,OVC013,0.00,VWS V14.01,2013-04-18 07:47:00,
2013-04-18 03:50:00,57.2,54.6,30.02,South,184,11.0,12.0,91,0.00,,,0.00,VWS V14.01,2013-04-18 07:50:00,
2013-04-18 03:52:00,57.1,54.5,30.02,SE,140,4.0,5.0,91,0.00,,OVC013,0.00,VWS V14.01,2013-04-18 07:52:00,
2013-04-18 03:57:00,57.2,54.6,30.02,South,181,6.0,12.0,91,0.00,,OVC013,0.00,VWS V14.01,2013-04-18 07:57:00,
2013-04-18 04:00:00,57.2,54.6,30.01,SE,125,7.0,12.0,91,0.00,,,0.00,VWS V14.01,2013-04-18 08:00:00,
2013-04-18 04:02:00,57.2,54.6,30.02,SE,145,5.0,12.0,91,0.00,,OVC013,0.00,VWS V14.01,2013-04-18 08:02:00,
2013-04-18 04:07:00,57.2,54.6,30.01,SE,125,7.0,12.0,91,0.00,,OVC013,0.00,VWS V14.01,2013-04-18 08:07:00,
2013-04-18 04:10:00,57.2,54.6,30.01,SSE,150,7.0,14.0,91,0.00,,,0.00,VWS V14.01,2013-04-18 08:10:00,
2013-04-18 04:12:00,57.1,54.5,30.01,ESE,123,4.0,9.0,91,0.00,,OVC013,0.00,VWS V14.01,2013-04-18 08:12:00,
2013-04-18 04:17:00,57.2,54.6,30.01,South,169,10.0,14.0,91,0.00,,OVC013,0.00,VWS V14.01,2013-04-18 08:17:00,
2013-04-18 04:20:00,57.0,54.4,30.00,SE,141,1.0,12.0,91,0.00,,,0.00,VWS V14.01,2013-04-18 08:20:00,
2013-04-18 04:22:00,57.1,54.5,30.00,SE,124,3.0,12.0,91,0.00,,OVC013,0.00,VWS V14.01,2013-04-18 08:22:00,
2013-04-18 04:27:00,57.0,54.4,30.00,SE,141,1.0,12.0,91,0.00,,OVC013,0.00,VWS V14.01,2013-04-18 08:27:00,
2013-04-18 04:30:00,56.9,54.6,30.00,SE,126,0.0,9.0,92,0.00,,,0.00,VWS V14.01,2013-04-18 08:30:00,
2013-04-18 04:32:00,56.9,54.6,30.00,SE,130,3.0,5.0,92,0.00,,OVC013,0.00,VWS V14.01,2013-04-18 08:32:00,
2013-04-18 04:37:00,56.9,54.6,30.00,SE,126,0.0,0.0,92,0.00,,OVC013,0.00,VWS V14.01,2013-04-18 08:37:00,
2013-04-18 04:40:00,57.0,54.7,30.00,West,259,0.0,5.0,92,0.00,,,0.00,VWS V14.01,2013-04-18 08:40:00,
2013-04-18 04:42:00,56.9,54.6,30.00,South,184,4.0,4.0,92,0.00,,OVC013,0.00,VWS V14.01,2013-04-18 08:42:00,
2013-04-18 04:47:00,57.0,54.7,30.00,West,259,0.0,0.0,92,0.00,,OVC013,0.00,VWS V14.01,2013-04-18 08:47:00,
2013-04-18 04:50:00,56.9,54.6,30.00,SSE,153,2.0,3.0,92,0.00,,,0.00,VWS V14.01,2013-04-18 08:50:00,
2013-04-18 04:52:00,56.9,54.6,30.00,WSW,238,1.0,2.0,92,0.00,,OVC013,0.00,VWS V14.01,2013-04-18 08:52:00,
2013-04-18 04:57:00,56.9,54.6,30.00,SSW,210,3.0,4.0,92,0.00,,OVC013,0.00,VWS V14.01,2013-04-18 08:57:00,
2013-04-18 05:00:00,56.9,54.6,29.99,SSE,152,1.0,6.0,92,0.00,,,0.00,VWS V14.01,2013-04-18 09:00:00,
2013-04-18 05:02:00,57.0,54.7,30.00,SE,130,1.0,4.0,92,0.00,,BKN013,0.00,VWS V14.01,2013-04-18 09:02:00,
2013-04-18 05:07:00,56.9,54.6,29.99,SSE,152,0.0,1.0,92,0.00,,BKN013,0.00,VWS V14.01,2013-04-18 09:07:00,
2013-04-18 05:10:00,56.9,54.6,29.99,SSE,163,1.0,7.0,92,0.00,,,0.00,VWS V14.01,2013-04-18 09:10:00,
2013-04-18 05:12:00,56.9,54.6,29.99,SSE,167,1.0,3.0,92,0.00,,BKN013,0.00,VWS V14.01,2013-04-18 09:12:00,
2013-04-18 05:17:00,56.9,54.6,29.99,SSE,163,0.0,1.0,92,0.00,,BKN013,0.00,VWS V14.01,2013-04-18 09:17:00,
2013-04-18 05:20:00,56.9,54.9,29.98,SE,132,0.0,6.0,93,0.00,,,0.00,VWS V14.01,2013-04-18 09:20:00,
2013-04-18 05:22:00,56.9,54.6,29.98,SE,132,2.0,6.0,92,0.00,,BKN013,0.00,VWS V14.01,2013-04-18 09:22:00,
2013-04-18 05:27:00,56.9,54.9,29.98,SE,132,0.0,0.0,93,0.00,,BKN013,0.00,VWS V14.01,2013-04-18 09:27:00,
2013-04-18 05:30:00,57.0,55.0,29.98,SE,135,4.0,10.0,93,0.00,,,0.00,VWS V14.01,2013-04-18 09:30:00,
2013-04-18 05:32:00,57.0,55.0,29.98,ESE,123,1.0,7.0,93,0.00,,BKN013,0.00,VWS V14.01,2013-04-18 09:32:00,
2013-04-18 05:37:00,57.0,55.0,29.98,SE,138,4.0,5.0,93,0.00,,BKN013,0.00,VWS V14.01,2013-04-18 09:37:00,
2013-04-18 05:40:00,57.0,55.0,29.98,SSW,196,0.0,10.0,93,0.00,,,0.00,VWS V14.01,2013-04-18 09:40:00,
2013-04-18 05:42:00,57.0,55.0,29.98,South,176,1.0,6.0,93,0.00,,BKN013,0.00,VWS V14.01,2013-04-18 09:42:00,
2013-04-18 05:48:00,57.0,55.0,29.98,South,178,0.0,2.0,93,0.00,,BKN013,0.00,VWS V14.01,2013-04-18 09:48:00,
2013-04-18 05:50:00,57.1,55.1,29.98,SSE,149,5.0,10.0,93,0.00,,,0.00,VWS V14.01,2013-04-18 09:50:00,
2013-04-18 05:53:00,57.0,55.0,29.98,SW,215,5.0,10.0,93,0.00,,BKN013,0.00,VWS V14.01,2013-04-18 09:53:00,
2013-04-18 05:58:00,57.1,55.1,29.98,SSE,148,2.0,5.0,93,0.00,,BKN013,0.00,VWS V14.01,2013-04-18 09:58:00,
2013-04-18 06:00:00,57.1,55.1,29.98,SSW,211,4.0,10.0,93,0.00,,,0.00,VWS V14.01,2013-04-18 10:00:00,
2013-04-18 06:03:00,57.1,55.1,29.98,East,92,3.0,10.0,93,0.00,,,0.00,VWS V14.01,2013-04-18 10:03:00,
2013-04-18 06:08:00,57.1,55.1,29.98,ESE,123,3.0,5.0,93,0.00,,,0.00,VWS V14.01,2013-04-18 10:08:00,
2013-04-18 06:10:00,57.2,55.2,29.98,SE,130,5.0,12.0,93,0.00,,,0.00,VWS V14.01,2013-04-18 10:10:00,
2013-04-18 06:13:00,57.2,55.2,29.98,SSE,154,1.0,9.0,93,0.00,,,0.00,VWS V14.01,2013-04-18 10:13:00,
2013-04-18 06:18:00,57.2,55.2,29.98,SSE,153,5.0,11.0,93,0.00,,,0.00,VWS V14.01,2013-04-18 10:18:00,
2013-04-18 06:20:00,57.3,55.6,29.99,South,170,3.0,11.0,94,0.00,,,0.00,VWS V14.01,2013-04-18 10:20:00,
2013-04-18 06:23:00,57.3,55.6,29.99,South,185,5.0,11.0,94,0.00,,,0.00,VWS V14.01,2013-04-18 10:23:00,
2013-04-18 06:28:00,57.3,55.6,29.99,SSW,192,2.0,4.0,94,0.00,,,0.00,VWS V14.01,2013-04-18 10:28:00,
2013-04-18 06:30:00,57.2,55.5,29.99,South,183,1.0,10.0,94,0.00,,,0.00,VWS V14.01,2013-04-18 10:30:00,
2013-04-18 06:33:00,57.2,55.5,29.99,ESE,113,1.0,5.0,94,0.00,,,0.00,VWS V14.01,2013-04-18 10:33:00,
2013-04-18 06:38:00,57.2,55.5,29.99,South,183,0.0,1.0,94,0.00,,,0.00,VWS V14.01,2013-04-18 10:38:00,
2013-04-18 06:40:00,57.3,55.6,29.99,SSE,153,3.0,4.0,94,0.00,,,0.00,VWS V14.01,2013-04-18 10:40:00,
2013-04-18 06:43:00,57.3,55.6,29.99,SSE,148,0.0,4.0,94,0.00,,,0.00,VWS V14.01,2013-04-18 10:43:00,
2013-04-18 06:48:00,57.3,55.6,29.99,SE,132,3.0,3.0,94,0.00,,,0.00,VWS V14.01,2013-04-18 10:48:00,
2013-04-18 06:50:00,57.5,55.8,30.00,South,182,0.0,10.0,94,0.00,,,0.00,VWS V14.01,2013-04-18 10:50:00,
2013-04-18 06:53:00,57.3,55.6,30.00,SW,230,5.0,6.0,94,0.00,,,0.00,VWS V14.01,2013-04-18 10:53:00,
2013-04-18 06:58:00,57.5,55.8,30.00,South,182,0.0,0.0,94,0.00,,,0.00,VWS V14.01,2013-04-18 10:58:00,
2013-04-18 07:00:00,57.6,55.9,30.00,SSE,164,0.0,7.0,94,0.00,,,0.00,VWS V14.01,2013-04-18 11:00:00,
2013-04-18 07:03:00,57.5,55.8,30.00,ESE,109,3.0,3.0,94,0.00,,,0.00,VWS V14.01,2013-04-18 11:03:00,
2013-04-18 07:08:00,57.6,55.6,30.00,SSE,164,0.0,0.0,93,0.00,,,0.00,VWS V14.01,2013-04-18 11:08:00,
2013-04-18 07:10:00,57.6,55.6,30.00,SSE,150,5.0,6.0,93,0.00,,,0.00,VWS V14.01,2013-04-18 11:10:00,
2013-04-18 07:13:00,57.6,55.6,30.00,SSE,152,4.0,5.0,93,0.00,,,0.00,VWS V14.01,2013-04-18 11:13:00,
2013-04-18 07:18:00,57.7,55.7,30.00,SSE,147,3.0,6.0,93,0.00,,,0.00,VWS V14.01,2013-04-18 11:18:00,
2013-04-18 07:20:00,57.7,55.7,30.00,SSE,159,1.0,9.0,93,0.00,,,0.00,VWS V14.01,2013-04-18 11:20:00,
2013-04-18 07:23:00,57.7,55.7,30.00,SE,131,1.0,9.0,93,0.00,,,0.00,VWS V14.01,2013-04-18 11:23:00,
2013-04-18 07:28:00,57.7,55.7,30.00,ESE,109,2.0,2.0,93,0.00,,,0.00,VWS V14.01,2013-04-18 11:28:00,
2013-04-18 07:30:00,57.8,55.8,30.00,South,173,0.0,4.0,93,0.00,,,0.00,VWS V14.01,2013-04-18 11:30:00,
2013-04-18 07:33:00,57.8,55.8,30.00,ESE,111,0.0,4.0,93,0.00,,,0.00,VWS V14.01,2013-04-18 11:33:00,
2013-04-18 07:38:00,57.8,55.8,30.00,South,173,0.0,2.0,93,0.00,,,0.00,VWS V14.01,2013-04-18 11:38:00,
2013-04-18 07:40:00,58.0,56.3,30.00,SSE,158,2.0,5.0,94,0.00,,,0.00,VWS V14.01,2013-04-18 11:40:00,
2013-04-18 07:43:00,57.9,55.9,30.00,SSE,152,0.0,5.0,93,0.00,,,0.00,VWS V14.01,2013-04-18 11:43:00,
2013-04-18 07:48:00,58.0,56.3,30.00,SSE,158,0.0,2.0,94,0.00,,,0.00,VWS V14.01,2013-04-18 11:48:00,
2013-04-18 07:50:00,58.1,56.1,30.00,SSE,152,3.0,10.0,93,0.00,,,0.00,VWS V14.01,2013-04-18 11:50:00,
2013-04-18 07:53:00,58.0,56.0,30.00,SSE,153,2.0,3.0,93,0.00,,,0.00,VWS V14.01,2013-04-18 11:53:00,
2013-04-18 07:58:00,58.1,56.1,30.00,SE,128,3.0,3.0,93,0.00,,,0.00,VWS V14.01,2013-04-18 11:58:00,
2013-04-18 08:00:00,58.2,56.2,30.01,SSE,168,6.0,7.0,93,0.00,,,0.00,VWS V14.01,2013-04-18 12:00:00,
2013-04-18 08:03:00,58.2,56.2,30.00,SSE,157,2.0,7.0,93,0.00,,,0.00,VWS V14.01,2013-04-18 12:03:00,
2013-04-18 08:08:00,58.2,56.2,30.01,ESE,115,4.0,6.0,93,0.00,,,0.00,VWS V14.01,2013-04-18 12:08:00,
2013-04-18 08:10:00,58.4,56.4,30.01,SSE,155,2.0,11.0,93,0.00,,,0.00,VWS V14.01,2013-04-18 12:10:00,
2013-04-18 08:13:00,58.3,56.3,30.01,SE,140,6.0,7.0,93,0.00,,,0.00,VWS V14.01,2013-04-18 12:13:00,
2013-04-18 08:18:00,58.4,56.4,30.01,SE,141,2.0,5.0,93,0.00,,,0.00,VWS V14.01,2013-04-18 12:18:00,
2013-04-18 08:20:00,58.6,56.6,30.00,SE,136,5.0,9.0,93,0.00,,,0.00,VWS V14.01,2013-04-18 12:20:00,
2013-04-18 08:23:00,58.6,56.6,30.00,South,188,3.0,7.0,93,0.00,,,0.00,VWS V14.01,2013-04-18 12:23:00,
2013-04-18 08:28:00,58.6,56.6,30.00,SE,137,2.0,5.0,93,0.00,,,0.00,VWS V14.01,2013-04-18 12:28:00,
2013-04-18 08:30:00,58.8,56.5,30.00,SSE,163,0.0,9.0,92,0.00,,,0.00,VWS V14.01,2013-04-18 12:30:00,
2013-04-18 08:33:00,58.7,56.4,30.00,SE,144,5.0,9.0,92,0.00,,,0.00,VWS V14.01,2013-04-18 12:33:00,
2013-04-18 08:38:00,58.8,56.5,30.00,SW,234,5.0,6.0,92,0.00,,,0.00,VWS V14.01,2013-04-18 12:38:00,
2013-04-18 08:40:00,59.0,56.7,30.00,South,190,3.0,10.0,92,0.00,,,0.00,VWS V14.01,2013-04-18 12:40:00,
2013-04-18 08:43:00,58.9,56.6,30.00,SE,138,2.0,9.0,92,0.00,,,0.00,VWS V14.01,2013-04-18 12:43:00,
2013-04-18 08:48:00,59.0,56.7,30.00,SE,142,4.0,9.0,92,0.00,,,0.00,VWS V14.01,2013-04-18 12:48:00,
2013-04-18 08:50:00,59.5,57.2,30.00,South,188,6.0,9.0,92,0.00,,,0.00,VWS V14.01,2013-04-18 12:50:00,
2013-04-18 08:53:00,59.3,57.0,30.00,SE,141,3.0,9.0,92,0.00,,,0.00,VWS V14.01,2013-04-18 12:53:00,
2013-04-18 08:58:00,59.5,57.2,30.00,South,188,0.0,6.0,92,0.00,,,0.00,VWS V14.01,2013-04-18 12:58:00,
2013-04-18 09:00:00,60.1,57.5,30.00,ESE,109,6.0,11.0,91,0.00,,,0.00,VWS V14.01,2013-04-18 13:00:00,
2013-04-18 09:03:00,59.8,57.2,30.00,SE,134,4.0,11.0,91,0.00,,,0.00,VWS V14.01,2013-04-18 13:03:00,
2013-04-18 09:08:00,60.2,57.6,30.00,SSE,160,5.0,12.0,91,0.00,,,0.00,VWS V14.01,2013-04-18 13:08:00,
2013-04-18 09:10:00,61.2,58.2,30.00,SSE,149,4.0,12.0,90,0.00,,,0.00,VWS V14.01,2013-04-18 13:10:00,
2013-04-18 09:13:00,61.1,58.5,30.00,ESE,118,5.0,12.0,91,0.00,,,0.00,VWS V14.01,2013-04-18 13:13:00,
2013-04-18 09:18:00,61.3,58.3,30.00,SSE,152,4.0,7.0,90,0.00,,,0.00,VWS V14.01,2013-04-18 13:18:00,
2013-04-18 09:20:00,62.5,58.9,30.00,South,190,6.0,16.0,88,0.00,,,0.00,VWS V14.01,2013-04-18 13:20:00,
2013-04-18 09:23:00,61.8,58.8,30.00,SE,136,3.0,11.0,90,0.00,,,0.00,VWS V14.01,2013-04-18 13:23:00,
2013-04-18 09:28:00,62.5,58.9,30.00,SE,144,5.0,14.0,88,0.00,,,0.00,VWS V14.01,2013-04-18 13:28:00,
2013-04-18 09:30:00,62.3,58.4,29.98,ESE,115,3.0,15.0,87,0.00,,,0.00,VWS V14.01,2013-04-18 13:30:00,
2013-04-18 09:33:00,62.3,58.4,30.00,SE,141,11.0,15.0,87,0.00,,,0.00,VWS V14.01,2013-04-18 13:33:00,
2013-04-18 09:38:00,62.3,58.4,29.98,SSE,153,6.0,15.0,87,0.00,,,0.00,VWS V14.01,2013-04-18 13:38:00,
2013-04-18 09:40:00,63.6,59.3,29.98,SE,137,11.0,16.0,86,0.00,,,0.00,VWS V14.01,2013-04-18 13:40:00,
2013-04-18 09:43:00,62.9,59.0,29.98,SE,124,6.0,16.0,87,0.00,,,0.00,VWS V14.01,2013-04-18 13:43:00,
2013-04-18 09:48:00,63.6,59.0,29.98,SE,141,5.0,13.0,85,0.00,,,0.00,VWS V14.01,2013-04-18 13:48:00,
2013-04-18 09:50:00,64.1,59.2,29.98,SE,128,6.0,13.0,84,0.00,,,0.00,VWS V14.01,2013-04-18 13:50:00,
2013-04-18 09:53:00,64.1,59.5,29.98,ENE,66,5.0,13.0,85,0.00,,,0.00,VWS V14.01,2013-04-18 13:53:00,
2013-04-18 09:58:00,64.1,59.2,29.98,SE,130,5.0,9.0,84,0.00,,,0.00,VWS V14.01,2013-04-18 13:58:00,
2013-04-18 10:00:00,64.5,59.2,29.97,South,169,5.0,12.0,83,0.00,,,0.00,VWS V14.01,2013-04-18 14:00:00,
2013-04-18 10:03:00,64.6,59.7,29.98,SE,128,6.0,11.0,84,0.00,,,0.00,VWS V14.01,2013-04-18 14:03:00,
2013-04-18 10:08:00,64.7,59.8,29.97,SSE,153,7.0,10.0,84,0.00,,,0.00,VWS V14.01,2013-04-18 14:08:00,
2013-04-18 10:10:00,65.3,59.7,29.97,SSE,163,5.0,15.0,82,0.00,,,0.00,VWS V14.01,2013-04-18 14:10:00,
2013-04-18 10:13:00,65.2,60.2,29.97,SE,146,4.0,11.0,84,0.00,,,0.00,VWS V14.01,2013-04-18 14:13:00,
2013-04-18 10:18:00,65.5,60.2,29.97,SE,144,11.0,13.0,83,0.00,,,0.00,VWS V14.01,2013-04-18 14:18:00,
2013-04-18 10:20:00,65.4,59.8,29.97,SSE,150,9.0,15.0,82,0.00,,,0.00,VWS V14.01,2013-04-18 14:20:00,
2013-04-18 10:23:00,65.5,59.9,29.97,ESE,113,13.0,15.0,82,0.00,,,0.00,VWS V14.01,2013-04-18 14:23:00,
2013-04-18 10:29:00,65.4,59.4,29.97,SE,132,9.0,13.0,81,0.00,,,0.00,VWS V14.01,2013-04-18 14:29:00,
2013-04-18 10:30:00,65.8,59.8,29.97,SSE,150,9.0,17.0,81,0.00,,,0.00,VWS V14.01,2013-04-18 14:30:00,
2013-04-18 10:34:00,65.5,59.5,29.97,SSE,149,5.0,17.0,81,0.00,,,0.00,VWS V14.01,2013-04-18 14:34:00,
2013-04-18 10:39:00,65.9,59.9,29.97,SSE,159,10.0,12.0,81,0.00,,,0.00,VWS V14.01,2013-04-18 14:39:00,
2013-04-18 10:40:00,66.4,60.0,29.97,ESE,110,9.0,17.0,80,0.00,,,0.00,VWS V14.01,2013-04-18 14:40:00,
2013-04-18 10:44:00,66.8,61.1,29.97,ESE,113,6.0,12.0,82,0.00,,,0.00,VWS V14.01,2013-04-18 14:44:00,
2013-04-18 10:49:00,66.5,60.5,29.97,SSE,155,9.0,13.0,81,0.00,,,0.00,VWS V14.01,2013-04-18 14:49:00,
2013-04-18 10:50:00,66.6,60.6,29.96,SE,140,5.0,18.0,81,0.00,,,0.00,VWS V14.01,2013-04-18 14:50:00,
2013-04-18 10:54:00,66.6,60.9,29.96,SE,141,13.0,18.0,82,0.00,,,0.00,VWS V14.01,2013-04-18 14:54:00,
2013-04-18 10:59:00,66.6,60.6,29.96,NW,310,1.0,12.0,81,0.00,,,0.00,VWS V14.01,2013-04-18 14:59:00,
2013-04-18 11:00:00,66.7,60.3,29.95,SSE,147,4.0,15.0,80,0.00,,,0.00,VWS V14.01,2013-04-18 15:00:00,
2013-04-18 11:04:00,66.5,60.5,29.96,SSE,162,3.0,15.0,81,0.00,,,0.00,VWS V14.01,2013-04-18 15:04:00,
2013-04-18 11:09:00,66.7,60.3,29.95,SE,124,5.0,10.0,80,0.00,,,0.00,VWS V14.01,2013-04-18 15:09:00,
2013-04-18 11:10:00,67.2,60.5,29.95,SSE,168,7.0,15.0,79,0.00,,,0.00,VWS V14.01,2013-04-18 15:10:00,
2013-04-18 11:14:00,67.1,61.1,29.95,East,99,6.0,15.0,81,0.00,,,0.00,VWS V14.01,2013-04-18 15:14:00,
2013-04-18 11:19:00,67.1,60.4,29.95,ESE,123,11.0,14.0,79,0.00,,,0.00,VWS V14.01,2013-04-18 15:19:00,
2013-04-18 11:20:00,67.6,60.9,29.95,SE,138,4.0,21.0,79,0.00,,,0.00,VWS V14.01,2013-04-18 15:20:00,
2013-04-18 11:24:00,67.3,60.9,29.95,SSE,152,7.0,16.0,80,0.00,,,0.00,VWS V14.01,2013-04-18 15:24:00,
2013-04-18 11:29:00,67.7,61.0,29.95,ESE,110,6.0,13.0,79,0.00,,,0.00,VWS V14.01,2013-04-18 15:29:00,
2013-04-18 11:30:00,68.2,61.8,29.94,SE,129,4.0,13.0,80,0.00,,,0.00,VWS V14.01,2013-04-18 15:30:00,
2013-04-18 11:34:00,67.9,61.5,29.95,ESE,109,6.0,13.0,80,0.00,,,0.00,VWS V14.01,2013-04-18 15:34:00,
2013-04-18 11:39:00,68.1,61.0,29.94,SSE,160,9.0,17.0,78,0.00,,,0.00,VWS V14.01,2013-04-18 15:39:00,
2013-04-18 11:40:00,67.7,61.0,29.94,SSE,167,9.0,17.0,79,0.00,,,0.00,VWS V14.01,2013-04-18 15:40:00,
2013-04-18 11:44:00,67.7,60.6,29.94,SSW,198,10.0,17.0,78,0.00,,,0.00,VWS V14.01,2013-04-18 15:44:00,
2013-04-18 11:49:00,67.7,61.0,29.94,SSE,154,8.0,15.0,79,0.00,,,0.00,VWS V14.01,2013-04-18 15:49:00,
2013-04-18 11:50:00,68.2,61.1,29.94,SE,146,12.0,20.0,78,0.00,,,0.00,VWS V14.01,2013-04-18 15:50:00,
2013-04-18 11:54:00,67.9,61.5,29.94,ESE,107,9.0,20.0,80,0.00,,,0.00,VWS V14.01,2013-04-18 15:54:00,
2013-04-18 11:59:00,68.2,61.5,29.94,SE,134,9.0,14.0,79,0.00,,,0.00,VWS V14.01,2013-04-18 15:59:00,
2013-04-18 12:00:00,68.5,61.4,29.93,SE,143,10.0,20.0,78,0.00,,,0.00,VWS V14.01,2013-04-18 16:00:00,
2013-04-18 12:04:00,68.3,61.2,29.94,SSE,163,6.0,20.0,78,0.00,,OVC011,0.00,VWS V14.01,2013-04-18 16:04:00,
2013-04-18 12:09:00,68.1,60.6,29.93,SE,125,13.0,18.0,77,0.00,,OVC011,0.00,VWS V14.01,2013-04-18 16:09:00,
2013-04-18 12:10:00,68.8,61.3,29.93,SSE,149,10.0,18.0,77,0.00,,,0.00,VWS V14.01,2013-04-18 16:10:00,
2013-04-18 12:14:00,68.2,61.1,29.93,ESE,119,9.0,18.0,78,0.00,,OVC011,0.00,VWS V14.01,2013-04-18 16:14:00,
2013-04-18 12:19:00,68.9,61.8,29.93,SSE,168,9.0,14.0,78,0.00,,OVC011,0.00,VWS V14.01,2013-04-18 16:19:00,
2013-04-18 12:20:00,69.3,62.2,29.92,SSE,151,10.0,15.0,78,0.00,,,0.00,VWS V14.01,2013-04-18 16:20:00,
2013-04-18 12:24:00,69.1,61.6,29.92,SE,142,9.0,15.0,77,0.00,,OVC011,0.00,VWS V14.01,2013-04-18 16:24:00,
2013-04-18 12:29:00,69.4,62.2,29.92,SE,144,10.0,12.0,78,0.00,,OVC011,0.00,VWS V14.01,2013-04-18 16:29:00,
2013-04-18 12:30:00,68.8,60.9,29.91,SE,124,4.0,19.0,76,0.00,,,0.00,VWS V14.01,2013-04-18 16:30:00,
2013-04-18 12:34:00,69.0,61.5,29.92,SSE,153,5.0,19.0,77,0.00,,OVC011,0.00,VWS V14.01,2013-04-18 16:34:00,
2013-04-18 12:39:00,68.8,61.3,29.91,NNW,338,7.0,15.0,77,0.00,,OVC011,0.00,VWS V14.01,2013-04-18 16:39:00,
2013-04-18 12:40:00,68.8,61.3,29.91,South,191,7.0,21.0,77,0.00,,,0.00,VWS V14.01,2013-04-18 16:40:00,
2013-04-18 12:44:00,68.9,61.0,29.91,SE,146,12.0,21.0,76,0.00,,OVC011,0.00,VWS V14.01,2013-04-18 16:44:00,
2013-04-18 12:49:00,69.0,61.5,29.91,SE,136,9.0,17.0,77,0.00,,OVC011,0.00,VWS V14.01,2013-04-18 16:49:00,
2013-04-18 12:50:00,69.3,61.4,29.91,SSE,151,6.0,17.0,76,0.00,,,0.00,VWS V14.01,2013-04-18 16:50:00,
2013-04-18 12:54:00,69.2,62.1,29.91,SE,144,7.0,17.0,78,0.00,,OVC011,0.00,VWS V14.01,2013-04-18 16:54:00,
2013-04-18 12:59:00,69.2,61.3,29.91,ESE,123,11.0,16.0,76,0.00,,OVC011,0.00,VWS V14.01,2013-04-18 16:59:00,
2013-04-18 13:00:00,69.2,61.3,29.90,SSE,156,14.0,19.0,76,0.00,,,0.00,VWS V14.01,2013-04-18 17:00:00,
2013-04-18 13:04:00,69.1,62.0,29.91,SE,131,13.0,19.0,78,0.00,,OVC013,0.00,VWS V14.01,2013-04-18 17:04:00,
2013-04-18 13:09:00,69.6,62.4,29.90,SE,143,9.0,14.0,78,0.00,,OVC013,0.00,VWS V14.01,2013-04-18 17:09:00,
2013-04-18 13:10:00,69.5,62.0,29.90,East,87,5.0,21.0,77,0.00,,,0.00,VWS V14.01,2013-04-18 17:10:00,
2013-04-18 13:14:00,69.5,62.0,29.90,SE,128,7.0,19.0,77,0.00,,OVC013,0.00,VWS V14.01,2013-04-18 17:14:00,
2013-04-18 13:19:00,70.3,63.1,29.90,SSE,152,6.0,15.0,78,0.00,,OVC013,0.00,VWS V14.01,2013-04-18 17:19:00,
2013-04-18 13:20:00,70.0,62.1,29.88,East,82,9.0,17.0,76,0.00,,,0.00,VWS V14.01,2013-04-18 17:20:00,
2013-04-18 13:24:00,70.3,62.0,29.88,SSE,158,4.0,17.0,75,0.00,,OVC013,0.00,VWS V14.01,2013-04-18 17:24:00,
2013-04-18 13:29:00,69.5,61.2,29.88,ESE,113,3.0,19.0,75,0.00,,OVC013,0.00,VWS V14.01,2013-04-18 17:29:00,
2013-04-18 13:30:00,69.6,61.7,29.88,SE,124,9.0,19.0,76,0.00,,,0.00,VWS V14.01,2013-04-18 17:30:00,
2013-04-18 13:34:00,69.4,62.2,29.88,SE,146,9.0,19.0,78,0.00,,OVC013,0.00,VWS V14.01,2013-04-18 17:34:00,
2013-04-18 13:40:00,69.8,62.3,29.88,SE,136,9.0,16.0,77,0.00,,OVC013,0.00,VWS V14.01,2013-04-18 17:40:00,
2013-04-18 13:45:00,69.9,61.6,29.88,SE,146,6.0,19.0,75,0.00,,OVC013,0.00,VWS V14.01,2013-04-18 17:45:00,
2013-04-18 13:50:00,70.6,62.7,29.88,ESE,113,9.0,12.0,76,0.00,,OVC013,0.00,VWS V14.01,2013-04-18 17:50:00,
2013-04-18 13:55:00,70.7,62.8,29.87,SSE,147,17.0,21.0,76,0.00,,OVC013,0.00,VWS V14.01,2013-04-18 17:55:00,
2013-04-18 14:00:00,70.6,62.3,29.87,ESE,109,7.0,13.0,75,0.00,,OVC013,0.00,VWS V14.01,2013-04-18 18:00:00,
2013-04-18 14:05:00,70.6,61.9,29.87,SSE,155,12.0,17.0,74,0.00,,OVC011,0.00,VWS V14.01,2013-04-18 18:05:00,
2013-04-18 14:10:00,71.2,62.1,29.86,SE,134,8.0,19.0,73,0.00,,OVC011,0.00,VWS V14.01,2013-04-18 18:10:00,
2013-04-18 14:15:00,71.4,62.3,29.86,ESE,118,8.0,19.0,73,0.00,,OVC011,0.00,VWS V14.01,2013-04-18 18:15:00,
2013-04-18 14:20:00,72.4,64.0,29.86,SE,134,6.0,14.0,75,0.00,,OVC011,0.00,VWS V14.01,2013-04-18 18:20:00,
2013-04-18 14:25:00,73.0,63.0,29.85,ESE,118,12.0,22.0,71,0.00,,OVC011,0.00,VWS V14.01,2013-04-18 18:25:00,
2013-04-18 14:30:00,72.8,63.3,29.85,South,169,13.0,20.0,72,0.00,,OVC011,0.00,VWS V14.01,2013-04-18 18:30:00,
2013-04-18 14:35:00,72.6,63.5,29.85,SE,136,8.0,21.0,73,0.00,,OVC011,0.00,VWS V14.01,2013-04-18 18:35:00,
2013-04-18 14:40:00,73.2,63.2,29.84,East,87,5.0,15.0,71,0.00,,OVC011,0.00,VWS V14.01,2013-04-18 18:40:00,
2013-04-18 14:45:00,73.0,63.0,29.84,SSE,155,13.0,17.0,71,0.00,,OVC011,0.00,VWS V14.01,2013-04-18 18:45:00,
2013-04-18 14:50:00,73.1,63.2,29.84,South,174,5.0,10.0,71,0.00,,OVC011,0.00,VWS V14.01,2013-04-18 18:50:00,
2013-04-18 14:55:00,73.5,62.7,29.84,SE,130,8.0,17.0,69,0.00,,OVC011,0.00,VWS V14.01,2013-04-18 18:55:00,
2013-04-18 15:00:00,73.1,62.7,29.84,SSE,157,9.0,16.0,70,0.00,,OVC011,0.00,VWS V14.01,2013-04-18 19:00:00,
2013-04-18 15:05:00,74.0,63.6,29.84,SSE,150,14.0,17.0,70,0.00,,BKN011,0.00,VWS V14.01,2013-04-18 19:05:00,
2013-04-18 15:10:00,73.7,62.5,29.82,SSE,148,12.0,20.0,68,0.00,,BKN011,0.00,VWS V14.01,2013-04-18 19:10:00,
2013-04-18 15:15:00,74.2,63.4,29.82,SSE,168,11.0,20.0,69,0.00,,BKN011,0.00,VWS V14.01,2013-04-18 19:15:00,
2013-04-18 15:20:00,74.1,62.9,29.82,South,173,6.0,17.0,68,0.00,,BKN011,0.00,VWS V14.01,2013-04-18 19:20:00,
2013-04-18 15:25:00,73.5,61.9,29.82,SSE,161,7.0,19.0,67,0.00,,BKN011,0.00,VWS V14.01,2013-04-18 19:25:00,
2013-04-18 15:30:00,73.5,61.0,29.82,SSE,160,10.0,17.0,65,0.00,,BKN011,0.00,VWS V14.01,2013-04-18 19:30:00,
2013-04-18 15:35:00,74.6,61.6,29.82,SE,140,14.0,20.0,64,0.00,,BKN011,0.00,VWS V14.01,2013-04-18 19:35:00,
2013-04-18 15:40:00,74.8,62.3,29.81,SE,128,15.0,16.0,65,0.00,,BKN011,0.00,VWS V14.01,2013-04-18 19:40:00,
2013-04-18 15:45:00,74.7,60.8,29.81,SE,138,14.0,21.0,62,0.00,,BKN011,0.00,VWS V14.01,2013-04-18 19:45:00,
2013-04-18 15:50:00,74.5,60.6,29.81,SSE,148,6.0,18.0,62,0.00,,BKN011,0.00,VWS V14.01,2013-04-18 19:50:00,
2013-04-18 15:55:00,74.2,60.8,29.80,SE,130,10.0,18.0,63,0.00,,BKN011,0.00,VWS V14.01,2013-04-18 19:55:00,
2013-04-18 16:00:00,73.9,60.5,29.80,SSE,161,4.0,14.0,63,0.00,,BKN011,0.00,VWS V14.01,2013-04-18 20:00:00,
2013-04-18 16:05:00,74.0,61.5,29.80,SE,134,4.0,14.0,65,0.00,,SCT011,0.00,VWS V14.01,2013-04-18 20:05:00,
2013-04-18 16:10:00,75.1,61.2,29.80,ESE,110,14.0,22.0,62,0.00,,SCT011,0.00,VWS V14.01,2013-04-18 20:10:00,
2013-04-18 16:15:00,75.9,61.0,29.80,SSE,148,15.0,22.0,60,0.00,,SCT011,0.00,VWS V14.01,2013-04-18 20:15:00,
2013-04-18 16:20:00,76.2,61.3,29.80,South,173,10.0,19.0,60,0.00,,SCT011,0.00,VWS V14.01,2013-04-18 20:20:00,
2013-04-18 16:25:00,75.2,60.4,29.79,South,172,9.0,19.0,60,0.00,,SCT011,0.00,VWS V14.01,2013-04-18 20:25:00,
2013-04-18 16:30:00,74.1,59.8,29.79,SE,138,11.0,28.0,61,0.00,,SCT011,0.00,VWS V14.01,2013-04-18 20:30:00,
2013-04-18 16:35:00,73.8,60.0,29.79,SSE,150,14.0,28.0,62,0.00,,SCT011,0.00,VWS V14.01,2013-04-18 20:35:00,
2013-04-18 16:40:00,73.6,60.2,29.79,SSE,167,14.0,17.0,63,0.00,,SCT011,0.00,VWS V14.01,2013-04-18 20:40:00,
2013-04-18 16:45:00,73.6,59.8,29.79,SSE,159,10.0,21.0,62,0.00,,SCT011,0.00,VWS V14.01,2013-04-18 20:45:00,
2013-04-18 16:50:00,73.7,60.3,29.79,SE,132,9.0,16.0,63,0.00,,SCT011,0.00,VWS V14.01,2013-04-18 20:50:00,
2013-04-18 16:55:00,73.7,59.9,29.79,ESE,123,7.0,18.0,62,0.00,,SCT011,0.00,VWS V14.01,2013-04-18 20:55:00,
2013-04-18 17:00:00,73.6,59.8,29.79,East,98,6.0,19.0,62,0.00,,SCT011,0.00,VWS V14.01,2013-04-18 21:00:00,
2013-04-18 17:05:00,73.4,59.6,29.79,SSE,153,6.0,20.0,62,0.00,,SCT022,0.00,VWS V14.01,2013-04-18 21:05:00,
2013-04-18 17:10:00,73.9,60.5,29.79,South,186,7.0,14.0,63,0.00,,SCT022,0.00,VWS V14.01,2013-04-18 21:10:00,
2013-04-18 17:15:00,73.8,60.0,29.79,ESE,121,18.0,22.0,62,0.00,,SCT022,0.00,VWS V14.01,2013-04-18 21:15:00,
2013-04-18 17:20:00,73.6,59.3,29.79,SSE,166,12.0,21.0,61,0.00,,SCT022,0.00,VWS V14.01,2013-04-18 21:20:00,
2013-04-18 17:25:00,72.9,59.6,29.79,SE,128,11.0,21.0,63,0.00,,SCT022,0.00,VWS V14.01,2013-04-18 21:25:00,
2013-04-18 17:30:00,72.8,59.5,29.79,SE,130,10.0,18.0,63,0.00,,SCT022,0.00,VWS V14.01,2013-04-18 21:30:00,
2013-04-18 17:35:00,72.8,59.0,29.79,SSE,155,9.0,22.0,62,0.00,,SCT022,0.00,VWS V14.01,2013-04-18 21:35:00,
2013-04-18 17:40:00,73.0,59.7,29.79,ESE,117,11.0,17.0,63,0.00,,SCT022,0.00,VWS V14.01,2013-04-18 21:40:00,
2013-04-18 17:45:00,72.9,59.1,29.79,SE,138,12.0,17.0,62,0.00,,SCT022,0.00,VWS V14.01,2013-04-18 21:45:00,
2013-04-18 17:50:00,73.0,58.8,29.79,ESE,113,12.0,20.0,61,0.00,,SCT022,0.00,VWS V14.01,2013-04-18 21:50:00,
2013-04-18 17:55:00,72.8,59.0,29.79,SE,141,12.0,20.0,62,0.00,,SCT022,0.00,VWS V14.01,2013-04-18 21:55:00,
2013-04-18 18:00:00,72.7,59.4,29.79,ESE,104,4.0,11.0,63,0.00,,CLR,0.00,VWS V14.01,2013-04-18 22:00:00,
2013-04-18 18:06:00,72.5,58.8,29.79,SSE,167,16.0,21.0,62,0.00,,CLR,0.00,VWS V14.01,2013-04-18 22:06:00,
2013-04-18 18:10:00,72.7,58.9,29.79,South,170,12.0,24.0,62,0.00,,,0.00,VWS V14.01,2013-04-18 22:10:00,
2013-04-18 18:11:00,72.7,58.5,29.79,East,87,12.0,20.0,61,0.00,,CLR,0.00,VWS V14.01,2013-04-18 22:11:00,
2013-04-18 18:16:00,72.8,58.6,29.79,SSE,150,6.0,23.0,61,0.00,,CLR,0.00,VWS V14.01,2013-04-18 22:16:00,
2013-04-18 18:20:00,72.4,58.2,29.78,SE,128,4.0,22.0,61,0.00,,,0.00,VWS V14.01,2013-04-18 22:20:00,
2013-04-18 18:21:00,72.6,58.8,29.79,ESE,103,6.0,21.0,62,0.00,,CLR,0.00,VWS V14.01,2013-04-18 22:21:00,
2013-04-18 18:26:00,72.4,58.7,29.78,SE,144,16.0,22.0,62,0.00,,CLR,0.00,VWS V14.01,2013-04-18 22:26:00,
2013-04-18 18:30:00,72.3,58.1,29.79,SSE,155,7.0,19.0,61,0.00,,,0.00,VWS V14.01,2013-04-18 22:30:00,
2013-04-18 18:31:00,72.4,58.7,29.78,SE,136,16.0,19.0,62,0.00,,CLR,0.00,VWS V14.01,2013-04-18 22:31:00,
2013-04-18 18:36:00,72.4,58.7,29.78,SSW,196,7.0,19.0,62,0.00,,CLR,0.00,VWS V14.01,2013-04-18 22:36:00,
2013-04-18 18:40:00,71.7,58.5,29.79,ESE,122,5.0,26.0,63,0.00,,,0.00,VWS V14.01,2013-04-18 22:40:00,
2013-04-18 18:41:00,72.2,58.0,29.79,SE,130,12.0,26.0,61,0.00,,CLR,0.00,VWS V14.01,2013-04-18 22:41:00,
2013-04-18 18:46:00,71.7,58.5,29.79,SSE,156,6.0,26.0,63,0.00,,CLR,0.00,VWS V14.01,2013-04-18 22:46:00,
2013-04-18 18:50:00,71.0,58.2,29.79,SSE,153,5.0,25.0,64,0.00,,,0.00,VWS V14.01,2013-04-18 22:50:00,
2013-04-18 18:51:00,71.4,58.2,29.79,SE,125,12.0,15.0,63,0.00,,CLR,0.00,VWS V14.01,2013-04-18 22:51:00,
2013-04-18 18:56:00,71.1,57.9,29.79,SSE,158,11.0,25.0,63,0.00,,CLR,0.00,VWS V14.01,2013-04-18 22:56:00,
2013-04-18 19:00:00,70.0,58.1,29.79,SSE,160,6.0,22.0,66,0.00,,,0.00,VWS V14.01,2013-04-18 23:00:00,
2013-04-18 19:01:00,70.5,58.2,29.79,ESE,105,21.0,21.0,65,0.00,,SCT055,0.00,VWS V14.01,2013-04-18 23:01:00,
2013-04-18 19:06:00,70.2,58.3,29.79,SSE,152,7.0,22.0,66,0.00,,SCT055,0.00,VWS V14.01,2013-04-18 23:06:00,
2013-04-18 19:10:00,69.2,58.6,29.79,SE,133,7.0,22.0,69,0.00,,,0.00,VWS V14.01,2013-04-18 23:10:00,
2013-04-18 19:11:00,69.6,58.6,29.79,SE,128,6.0,15.0,68,0.00,,SCT055,0.00,VWS V14.01,2013-04-18 23:11:00,
2013-04-18 19:16:00,69.2,58.6,29.79,SSE,156,12.0,22.0,69,0.00,,SCT055,0.00,VWS V14.01,2013-04-18 23:16:00,
2013-04-18 19:20:00,68.5,58.3,29.79,SE,146,6.0,19.0,70,0.00,,,0.00,VWS V14.01,2013-04-18 23:20:00,
2013-04-18 19:21:00,68.9,58.3,29.79,South,176,11.0,19.0,69,0.00,,SCT055,0.00,VWS V14.01,2013-04-18 23:21:00,
2013-04-18 19:26:00,68.6,58.4,29.79,SE,134,5.0,19.0,70,0.00,,SCT055,0.00,VWS V14.01,2013-04-18 23:26:00,
2013-04-18 19:30:00,68.5,57.9,29.79,SSW,211,8.0,19.0,69,0.00,,,0.00,VWS V14.01,2013-04-18 23:30:00,
2013-04-18 19:31:00,68.3,58.2,29.79,South,179,12.0,19.0,70,0.00,,SCT055,0.00,VWS V14.01,2013-04-18 23:31:00,
2013-04-18 19:36:00,68.5,57.9,29.79,SE,146,9.0,19.0,69,0.00,,SCT055,0.00,VWS V14.01,2013-04-18 23:36:00,
2013-04-18 19:40:00,67.6,57.5,29.79,SE,141,3.0,13.0,70,0.00,,,0.00,VWS V14.01,2013-04-18 23:40:00,
2013-04-18 19:41:00,68.2,57.7,29.79,SE,143,8.0,13.0,69,0.00,,SCT055,0.00,VWS V14.01,2013-04-18 23:41:00,
2013-04-18 19:46:00,67.7,57.6,29.79,SE,130,4.0,13.0,70,0.00,,SCT055,0.00,VWS V14.01,2013-04-18 23:46:00,
2013-04-18 19:50:00,67.4,57.3,29.80,SE,141,9.0,19.0,70,0.00,,,0.00,VWS V14.01,2013-04-18 23:50:00,
2013-04-18 19:51:00,67.5,57.4,29.80,SSE,150,6.0,12.0,70,0.00,,SCT055,0.00,VWS V14.01,2013-04-18 23:51:00,
2013-04-18 19:56:00,67.4,57.3,29.80,SSE,153,6.0,19.0,70,0.00,,SCT055,0.00,VWS V14.01,2013-04-18 23:56:00,
2013-04-18 20:00:00,67.3,57.2,29.80,South,179,10.0,22.0,70,0.00,,,0.00,VWS V14.01,2013-04-19 00:00:00,
2013-04-18 20:01:00,67.5,57.0,29.80,South,171,10.0,22.0,69,0.00,,FEW036,0.00,VWS V14.01,2013-04-19 00:01:00,
2013-04-18 20:06:00,67.4,57.3,29.80,SE,144,4.0,22.0,70,0.00,,FEW036,0.00,VWS V14.01,2013-04-19 00:06:00,
2013-04-18 20:10:00,66.6,57.3,29.80,ESE,118,11.0,15.0,72,0.00,,,0.00,VWS V14.01,2013-04-19 00:10:00,
2013-04-18 20:12:00,67.1,57.4,29.80,SE,137,12.0,14.0,71,0.00,,FEW036,0.00,VWS V14.01,2013-04-19 00:12:00,
2013-04-18 20:17:00,66.6,57.3,29.80,SSE,156,6.0,15.0,72,0.00,,FEW036,0.00,VWS V14.01,2013-04-19 00:17:00,
2013-04-18 20:20:00,66.5,57.2,29.80,SSW,213,7.0,20.0,72,0.00,,,0.00,VWS V14.01,2013-04-19 00:20:00,
2013-04-18 20:22:00,66.5,57.2,29.80,SE,142,9.0,15.0,72,0.00,,FEW036,0.00,VWS V14.01,2013-04-19 00:22:00,
2013-04-18 20:27:00,66.5,57.2,29.80,South,169,6.0,20.0,72,0.00,,FEW036,0.00,VWS V14.01,2013-04-19 00:27:00,
2013-04-18 20:30:00,65.9,57.4,29.80,SSE,158,4.0,13.0,74,0.00,,,0.00,VWS V14.01,2013-04-19 00:30:00,
2013-04-18 20:32:00,66.1,57.2,29.80,South,190,7.0,13.0,73,0.00,,CLR,0.00,VWS V14.01,2013-04-19 00:32:00,
2013-04-18 20:37:00,65.9,57.4,29.80,SSE,163,5.0,13.0,74,0.00,,CLR,0.00,VWS V14.01,2013-04-19 00:37:00,
2013-04-18 20:40:00,65.6,57.1,29.80,SE,138,5.0,14.0,74,0.00,,,0.00,VWS V14.01,2013-04-19 00:40:00,
2013-04-18 20:42:00,65.8,57.3,29.80,SSW,203,1.0,14.0,74,0.00,,CLR,0.00,VWS V14.01,2013-04-19 00:42:00,
2013-04-18 20:47:00,65.5,57.0,29.80,NE,46,5.0,14.0,74,0.00,,CLR,0.00,VWS V14.01,2013-04-19 00:47:00,
2013-04-18 20:50:00,65.6,57.1,29.80,South,169,4.0,15.0,74,0.00,,,0.00,VWS V14.01,2013-04-19 00:50:00,
2013-04-18 20:52:00,65.5,57.0,29.80,SSE,155,4.0,14.0,74,0.00,,CLR,0.00,VWS V14.01,2013-04-19 00:52:00,
2013-04-18 20:57:00,65.6,57.1,29.80,SSE,164,10.0,15.0,74,0.00,,CLR,0.00,VWS V14.01,2013-04-19 00:57:00,
2013-04-18 21:00:00,65.3,56.4,29.82,SE,132,4.0,13.0,73,0.00,,,0.00,VWS V14.01,2013-04-19 01:00:00,
2013-04-18 21:02:00,65.5,56.6,29.80,ESE,109,3.0,12.0,73,0.00,,CLR,0.00,VWS V14.01,2013-04-19 01:02:00,
2013-04-18 21:07:00,65.3,56.4,29.82,South,178,8.0,13.0,73,0.00,,CLR,0.00,VWS V14.01,2013-04-19 01:07:00,
2013-04-18 21:10:00,65.3,56.4,29.82,SSW,209,2.0,14.0,73,0.00,,,0.00,VWS V14.01,2013-04-19 01:10:00,
2013-04-18 21:12:00,65.4,56.5,29.82,SSW,196,3.0,14.0,73,0.00,,CLR,0.00,VWS V14.01,2013-04-19 01:12:00,
2013-04-18 21:17:00,65.3,56.4,29.82,SW,217,5.0,14.0,73,0.00,,CLR,0.00,VWS V14.01,2013-04-19 01:17:00,
2013-04-18 21:20:00,64.9,56.4,29.81,SW,224,4.0,13.0,74,0.00,,,0.00,VWS V14.01,2013-04-19 01:20:00,
2013-04-18 21:22:00,65.2,56.3,29.81,SSE,165,5.0,11.0,73,0.00,,CLR,0.00,VWS V14.01,2013-04-19 01:22:00,
2013-04-18 21:27:00,64.9,56.4,29.81,South,188,7.0,13.0,74,0.00,,CLR,0.00,VWS V14.01,2013-04-19 01:27:00,
2013-04-18 21:30:00,65.1,57.0,29.80,SE,136,6.0,17.0,75,0.00,,,0.00,VWS V14.01,2013-04-19 01:30:00,
2013-04-18 21:32:00,64.7,56.6,29.81,West,270,2.0,13.0,75,0.00,,CLR,0.00,VWS V14.01,2013-04-19 01:32:00,
2013-04-18 21:37:00,65.1,57.0,29.80,SE,136,6.0,17.0,75,0.00,,CLR,0.00,VWS V14.01,2013-04-19 01:37:00,
2013-04-18 21:40:00,65.1,57.0,29.80,SSW,198,0.0,16.0,75,0.00,,,0.00,VWS V14.01,2013-04-19 01:40:00,
2013-04-18 21:42:00,64.9,56.8,29.80,South,173,4.0,12.0,75,0.00,,CLR,0.00,VWS V14.01,2013-04-19 01:42:00,
2013-04-18 21:47:00,65.1,57.0,29.80,SSW,198,0.0,0.0,75,0.00,,CLR,0.00,VWS V14.01,2013-04-19 01:47:00,
2013-04-18 21:50:00,64.5,56.8,29.81,WSW,254,4.0,12.0,76,0.00,,,0.00,VWS V14.01,2013-04-19 01:50:00,
2013-04-18 21:52:00,64.8,56.7,29.81,SSW,211,1.0,10.0,75,0.00,,CLR,0.00,VWS V14.01,2013-04-19 01:52:00,
2013-04-18 21:57:00,64.5,56.8,29.81,South,172,4.0,5.0,76,0.00,,CLR,0.00,VWS V14.01,2013-04-19 01:57:00,
2013-04-18 22:00:00,64.6,56.9,29.80,SW,215,5.0,14.0,76,0.00,,,0.00,VWS V14.01,2013-04-19 02:00:00,
2013-04-18 22:02:00,64.7,57.0,29.81,SSW,205,6.0,14.0,76,0.00,,CLR,0.00,VWS V14.01,2013-04-19 02:02:00,
2013-04-18 22:07:00,64.6,56.9,29.80,SE,145,1.0,5.0,76,0.00,,CLR,0.00,VWS V14.01,2013-04-19 02:07:00,
2013-04-18 22:10:00,64.2,56.5,29.80,SSE,161,2.0,10.0,76,0.00,,,0.00,VWS V14.01,2013-04-19 02:10:00,
2013-04-18 22:13:00,64.3,56.6,29.80,South,188,9.0,9.0,76,0.00,,CLR,0.00,VWS V14.01,2013-04-19 02:13:00,
2013-04-18 22:18:00,64.1,56.4,29.80,SE,146,3.0,5.0,76,0.00,,CLR,0.00,VWS V14.01,2013-04-19 02:18:00,
2013-04-18 22:20:00,63.7,56.4,29.80,SW,226,3.0,13.0,77,0.00,,,0.00,VWS V14.01,2013-04-19 02:20:00,
2013-04-18 22:23:00,64.0,56.7,29.80,South,184,3.0,9.0,77,0.00,,CLR,0.00,VWS V14.01,2013-04-19 02:23:00,
2013-04-18 22:28:00,63.7,56.4,29.80,South,185,5.0,5.0,77,0.00,,CLR,0.00,VWS V14.01,2013-04-19 02:28:00,
2013-04-18 22:30:00,63.3,56.3,29.79,South,186,2.0,11.0,78,0.00,,,0.00,VWS V14.01,2013-04-19 02:30:00,
2013-04-18 22:33:00,63.4,56.4,29.80,ESE,114,3.0,6.0,78,0.00,,CLR,0.00,VWS V14.01,2013-04-19 02:33:00,
2013-04-18 22:38:00,63.3,56.3,29.79,South,182,2.0,2.0,78,0.00,,CLR,0.00,VWS V14.01,2013-04-19 02:38:00,
2013-04-18 22:40:00,63.1,56.1,29.79,South,188,2.0,12.0,78,0.00,,,0.00,VWS V14.01,2013-04-19 02:40:00,
2013-04-18 22:43:00,63.3,56.3,29.79,SSW,194,0.0,12.0,78,0.00,,CLR,0.00,VWS V14.01,2013-04-19 02:43:00,
2013-04-18 22:48:00,63.1,56.1,29.79,South,189,0.0,2.0,78,0.00,,CLR,0.00,VWS V14.01,2013-04-19 02:48:00,
2013-04-18 22:50:00,62.9,55.9,29.78,SE,129,0.0,11.0,78,0.00,,,0.00,VWS V14.01,2013-04-19 02:50:00,
2013-04-18 22:53:00,63.0,56.0,29.78,South,191,1.0,11.0,78,0.00,,CLR,0.00,VWS V14.01,2013-04-19 02:53:00,
2013-04-18 22:58:00,63.0,56.0,29.78,SSE,168,3.0,3.0,78,0.00,,CLR,0.00,VWS V14.01,2013-04-19 02:58:00,
2013-04-18 23:00:00,63.1,55.8,29.78,SSE,159,2.0,9.0,77,0.00,,,0.00,VWS V14.01,2013-04-19 03:00:00,
2013-04-18 23:03:00,63.1,56.1,29.78,SE,137,2.0,9.0,78,0.00,,CLR,0.00,VWS V14.01,2013-04-19 03:03:00,
2013-04-18 23:08:00,63.0,55.7,29.78,South,175,2.0,6.0,77,0.00,,CLR,0.00,VWS V14.01,2013-04-19 03:08:00,
2013-04-18 23:10:00,62.5,55.6,29.78,SE,144,6.0,9.0,78,0.00,,,0.00,VWS V14.01,2013-04-19 03:10:00,
2013-04-18 23:13:00,62.6,55.7,29.78,South,190,3.0,8.0,78,0.00,,CLR,0.00,VWS V14.01,2013-04-19 03:13:00,
2013-04-18 23:18:00,62.5,55.6,29.78,SSE,157,3.0,6.0,78,0.00,,CLR,0.00,VWS V14.01,2013-04-19 03:18:00,
2013-04-18 23:20:00,62.0,55.4,29.76,ESE,107,4.0,11.0,79,0.00,,,0.00,VWS V14.01,2013-04-19 03:20:00,
2013-04-18 23:23:00,62.2,55.3,29.76,SSE,156,8.0,11.0,78,0.00,,CLR,0.00,VWS V14.01,2013-04-19 03:23:00,
2013-04-18 23:28:00,61.9,55.3,29.76,SSE,167,5.0,7.0,79,0.00,,CLR,0.00,VWS V14.01,2013-04-19 03:28:00,
2013-04-18 23:30:00,62.1,55.2,29.76,South,179,6.0,14.0,78,0.00,,,0.00,VWS V14.01,2013-04-19 03:30:00,
2013-04-18 23:33:00,61.8,55.2,29.76,SE,127,1.0,14.0,79,0.00,,CLR,0.00,VWS V14.01,2013-04-19 03:33:00,
2013-04-18 23:38:00,62.2,55.3,29.76,SSE,155,4.0,7.0,78,0.00,,CLR,0.00,VWS V14.01,2013-04-19 03:38:00,
2013-04-18 23:40:00,62.2,55.3,29.76,SSE,153,3.0,11.0,78,0.00,,,0.00,VWS V14.01,2013-04-19 03:40:00,
2013-04-18 23:43:00,62.2,55.3,29.76,SSE,157,1.0,7.0,78,0.00,,CLR,0.00,VWS V14.01,2013-04-19 03:43:00,
2013-04-18 23:48:00,62.2,55.3,29.76,SSE,156,0.0,4.0,78,0.00,,CLR,0.00,VWS V14.01,2013-04-19 03:48:00,
2013-04-18 23:50:00,62.4,55.1,29.76,South,189,2.0,9.0,77,0.00,,,0.00,VWS V14.01,2013-04-19 03:50:00,
2013-04-18 23:53:00,62.4,55.1,29.76,WSW,244,2.0,9.0,77,0.00,,CLR,0.00,VWS V14.01,2013-04-19 03:53:00,
2013-04-18 23:58:00,62.4,55.1,29.76,South,182,1.0,2.0,77,0.00,,CLR,0.00,VWS V14.01,2013-04-19 03:58:00,